Orbital Elements
Epoch 2018 Feb. 11.0 TT = JDT 2458160.5
T 2018 Feb. 25.04641 TT MPCW
q 3.8372631 (2000.0) P Q
n 0.04581824 Peri. 326.45682 -0.98449914 -0.07026286
a 7.7347049 Node 210.75352 +0.09165499 -0.98729044
e 0.5038902 Incl. 18.31670 -0.14953533 -0.14255072
P 21.51
From 131 observations 2017 Nov. 27-2018 June 13, mean residual 0".6.
|